RH
17 18 19 19 20 21 23 25 27 27 27 27 27 27 26 25 23 21 22 25 31 41 56 68 72 69 62 56 51 44 38 42 60 71 73 72 69 70 65 54 52 55 57 60 63 65 63 58 55 50 46 41 37 35 36 35 35 37 38 38 35 36
18 18 19 20 23 29 31 30 29 28 27 26 25 23 21 20 22 27 36 42 52 68 79 81 79 75 68 58 48 37 34 44 62 72 72 74 79 77 65 57 59 63 66 64 62 65 65 61 59 56 51 46 40 37 39 39 37 38 40 40 37 38
20 22 25 28 32 37 34 26 24 24 21 18 18 20 24 32 46 58 65 68 79 93 96 91 86 80 66 50 39 34 36 45 59 70 71 78 86 76 63 64 69 73 74 67 63 65 65 62 60 59 55 50 45 39 39 42 43 43 43 42 38 42
19 20 23 29 32 32 30 28 27 25 21 25 34 44 56 69 83 89 88 91 98 104 102 97 91 76 56 40 36 38 40 44 55 67 70 77 83 72 66 73 80 85 81 72 68 68 67 66 64 58 53 52 48 43 41 42 45 47 49 45 41 45
17 22 32 45 51 52 55 56 53 51 55 65 73 79 89 94 98 99 98 100 101 102 101 98 86 63 46 40 42 45 46 47 56 66 68 72 76 71 74 83 92 96 88 79 76 74 73 74 71 61 52 49 49 46 44 45 47 51 54 49 45 48
54 67 79 87 89 88 88 87 84 87 92 95 94 95 100 100 100 100 99 99 100 102 100 90 72 54 50 51 50 51 53 55 60 68 70 72 75 74 82 94 103 102 94 88 86 83 81 78 75 65 52 47 49 49 47 48 50 55 58 51 48 53
96 100 101 99 100 100 99 98 98 99 100 101 100 100 101 99 98 99 95 92 98 101 90 77 69 64 63 61 57 54 57 61 62 70 74 74 75 79 91 103 108 104 98 98 97 92 90 87 79 68 53 46 50 53 52 52 55 61 58 53 54 58
102 100 99 100 101 100 99 99 100 99 100 102 101 99 99 97 99 102 98 95 98 95 84 82 84 78 68 64 61 55 56 60 61 72 81 78 72 80 99 108 104 100 100 102 102 97 94 90 79 66 53 47 52 56 57 57 61 64 58 56 58 61
100 100 99 102 101 99 99 99 100 100 100 101 100 100 98 96 99 95 86 91 98 90 87 92 88 73 62 59 59 57 57 58 60 72 79 69 62 78 103 108 92 85 99 105 100 93 88 84 75 64 53 48 55 59 62 63 66 67 61 62 64 68
99 101 100 100 99 99 99 99 99 100 99 100 103 100 89 79 79 75 71 87 98 92 92 92 79 62 53 51 54 59 61 58 57 61 60 52 55 79 104 102 73 69 98 105 94 87 83 80 72 63 55 52 58 61 65 70 73 70 65 69 77 84
101 100 101 99 99 100 100 101 99 98 99 99 99 91 77 66 62 65 74 88 94 95 96 89 73 58 51 50 53 57 58 54 52 50 46 42 50 74 92 79 54 67 99 98 88 85 80 78 73 66 59 58 62 62 70 78 79 75 68 76 89 97
101 97 98 98 99 101 99 100 101 99 100 100 95 84 73 66 64 67 72 80 91 100 101 93 79 65 61 62 61 59 58 54 48 44 39 36 40 55 63 48 42 77 101 91 87 85 79 80 77 70 64 66 66 65 78 85 83 75 69 81 100 103
100 96 96 97 100 103 100 100 102 101 100 101 96 84 72 65 67 68 64 73 91 102 102 98 89 78 77 79 74 67 62 55 46 39 34 30 30 36 39 32 44 83 98 89 88 84 81 84 82 75 71 73 70 72 86 89 83 72 71 88 102 103
99 94 96 99 102 103 100 100 101 101 101 102 98 87 77 68 66 65 62 73 91 98 99 100 96 90 91 90 85 77 63 53 45 37 30 25 25 29 32 33 50 80 89 86 88 85 82 84 85 80 77 77 74 81 91 90 82 68 79 99 100 103
94 92 100 101 101 101 100 101 100 100 101 102 99 93 91 85 80 77 75 82 90 94 96 101 101 96 96 95 92 88 74 58 45 33 25 21 23 27 32 38 52 72 82 83 84 83 81 83 86 84 82 80 79 87 91 87 81 69 81 101 96 97
96 98 102 99 101 101 101 103 101 100 101 102 100 97 98 99 97 94 92 95 96 94 94 101 104 100 98 97 95 93 84 67 44 27 21 21 25 30 36 40 49 68 79 79 80 80 81 85 90 90 86 84 87 92 90 84 82 75 80 90 80 75
100 101 102 102 104 102 102 104 101 98 98 100 99 99 100 102 103 100 97 99 101 100 98 99 99 99 100 100 99 92 81 63 37 21 20 23 30 36 38 40 51 71 78 74 76 79 84 90 95 98 94 92 96 97 91 84 82 84 87 84 67 61
100 100 101 101 100 101 101 100 99 98 99 101 100 100 101 102 102 101 99 99 100 100 100 100 95 87 84 91 98 89 68 47 26 18 23 29 36 38 40 50 66 78 76 70 73 79 86 94 100 105 103 100 101 100 95 90 88 92 98 90 67 61
100 100 100 100 101 101 99 99 98 97 102 103 101 102 102 101 101 100 100 99 99 101 100 98 85 65 65 84 93 74 48 31 20 21 30 36 40 45 55 70 81 81 73 68 70 78 88 97 105 109 108 106 103 102 101 99 98 95 98 96 74 65
101 100 99 100 100 99 97 95 90 90 97 99 101 106 97 93 100 100 99 101 101 101 93 77 61 56 69 80 69 45 29 23 21 28 37 43 52 64 77 82 82 78 71 67 67 77 91 101 107 106 104 106 103 103 105 104 105 94 84 86 79 73
100 100 101 101 100 101 96 86 85 86 84 83 97 108 95 88 98 101 101 104 98 84 69 55 50 57 60 52 37 27 24 23 26 38 46 56 73 85 88 84 80 76 70 67 69 79 96 104 103 101 100 105 104 105 108 103 104 94 74 72 79 83
101 98 98 97 97 100 94 90 94 87 68 68 90 104 98 95 100 102 103 103 97 81 59 46 44 42 35 28 26 25 25 26 35 49 55 67 89 94 90 87 81 76 70 69 72 82 99 104 100 101 101 104 106 108 108 101 102 94 78 75 83 85
97 102 104 103 101 102 101 93 82 69 56 64 92 104 99 100 102 101 101 101 102 87 55 36 32 28 26 27 28 27 29 37 47 56 59 71 92 95 91 90 83 78 74 70 74 84 99 104 102 103 103 106 109 108 106 101 101 97 88 87 85 81
63 76 85 82 77 76 74 62 48 42 37 46 78 94 91 97 105 102 101 103 95 70 40 30 30 28 29 29 29 31 37 48 56 59 61 70 86 91 90 89 84 79 75 71 73 79 90 100 104 102 101 107 109 108 105 99 102 103 98 95 88 79
39 47 56 53 49 50 49 42 34 32 30 33 46 54 59 78 97 103 101 92 71 46 32 31 30 29 30 31 30 36 47 58 64 63 64 72 84 91 92 90 84 76 72 69 68 71 81 97 106 102 99 103 106 106 102 101 106 102 92 93 88 76
39 42 51 55 53 53 52 47 42 39 36 35 35 41 60 74 78 81 77 62 45 34 33 31 31 32 32 32 35 44 56 64 70 74 79 88 93 93 91 87 80 74 70 67 64 70 83 96 104 107 107 106 105 102 100 105 107 94 86 87 81 76
38 39 42 46 48 48 44 43 46 43 39 50 61 71 91 95 79 64 53 42 35 32 33 33 33 34 33 37 45 56 67 74 83 92 96 101 99 91 86 83 80 75 71 66 64 73 86 94 99 103 107 107 106 104 103 103 97 88 87 81 70 74
44 52 46 34 33 35 32 35 42 42 53 80 94 96 103 101 79 54 39 34 33 32 35 36 36 36 38 45 56 68 82 91 97 100 101 103 99 90 86 86 85 81 74 67 65 74 85 91 95 96 99 103 105 105 101 96 91 88 89 79 65 66
52 61 72 54 34 30 32 49 64 69 85 98 100 104 105 88 60 39 33 33 34 35 38 40 41 41 44 52 67 83 96 101 100 100 101 103 100 95 91 90 88 85 80 70 65 71 80 85 87 88 92 97 100 100 95 92 95 93 92 87 71 65
80 75 95 88 68 61 62 82 94 91 99 100 100 106 90 61 40 31 32 33 36 39 41 45 46 46 51 63 82 95 100 101 100 101 102 100 98 94 89 87 86 86 84 75 67 67 71 74 76 77 84 92 96 95 93 96 101 97 92 89 79 72
90 89 101 103 97 86 74 85 97 95 100 100 104 97 60 36 33 31 33 34 36 41 44 48 49 50 54 67 90 102 99 100 101 100 99 97 95 91 86 84 83 86 87 80 71 66 66 68 72 77 85 92 94 94 97 101 104 100 94 90 87 82
62 64 78 96 106 95 80 87 96 99 100 99 105 89 45 28 32 29 32 34 36 43 47 49 51 54 55 60 83 101 100 100 101 99 97 94 90 87 83 78 80 87 89 82 73 66 66 69 75 87 96 98 96 98 102 103 102 103 101 97 93 84
60 55 71 93 103 99 94 98 97 98 100 99 105 91 48 28 30 29 31 32 37 45 50 54 54 56 57 56 71 93 101 101 100 99 96 90 84 79 73 71 76 84 85 80 71 64 66 70 78 90 100 104 105 106 106 103 103 104 103 99 91 81
67 74 92 100 102 101 100 101 98 99 103 101 105 97 62 34 27 27 29 32 38 44 49 54 55 55 57 56 62 80 94 98 98 97 93 86 79 72 67 69 78 84 83 77 69 65 65 68 74 81 90 100 105 106 103 99 95 92 91 89 81 74
63 80 99 101 102 104 102 101 100 100 102 101 103 101 84 64 50 40 32 32 37 42 45 47 50 52 53 54 57 68 81 89 92 91 86 80 73 68 68 75 87 91 87 79 71 66 63 62 66 69 75 84 90 90 88 86 82 80 80 78 72 69
78 90 102 101 98 100 101 102 100 99 100 101 100 99 98 95 91 79 61 46 36 35 40 43 46 49 47 48 53 62 75 83 85 81 75 69 65 66 72 83 94 95 88 81 72 65 61 59 59 61 63 68 72 74 74 74 74 73 76 77 75 74
97 99 101 100 97 98 100 100 99 98 99 101 101 100 100 100 102 96 81 68 54 41 39 40 41 41 40 41 47 60 75 79 77 71 65 62 65 71 78 84 91 92 87 80 70 62 60 59 59 59 60 62 65 69 70 72 74 74 76 74 68 63
Wind_Speed
69 68 68 68 68 68 68 67 66 66 65 65 65 64 64 63 62 60 57 54 51 47 44 41 40 40 37 34 34 34 33 32 31 31 31 31 31 31 31 31 31 30 29 30 30 30 29 28 28 27 26 28 29 27 24 22 21 20 19 18 19 19
70 68 68 68 68 68 68 67 66 66 65 64 63 62 60 58 55 52 49 45 41 40 40 39 38 36 34 33 32 30 30 30 30 31 31 32 31 31 31 32 32 30 30 32 32 30 27 27 27 27 27 27 29 28 26 24 22 21 19 19 19 19
68 66 66 65 66 67 66 65 64 63 61 59 57 53 50 47 44 41 38 36 33 33 35 35 33 33 32 30 27 27 29 29 30 31 31 32 32 31 32 33 32 31 32 33 32 30 27 26 26 28 28 27 28 28 27 25 24 22 20 19 19 20
64 62 61 61 62 62 60 59 57 54 51 47 43 39 36 34 33 31 32 32 30 29 31 32 32 32 29 26 25 27 29 30 31 31 31 32 31 31 33 33 32 32 34 34 32 30 29 27 27 28 28 27 27 28 27 26 24 23 20 19 20 22
57 54 52 53 53 51 49 47 43 40 37 34 32 29 28 26 27 29 30 30 28 29 30 30 30 28 25 25 27 29 29 30 31 32 32 31 31 33 34 33 32 33 35 34 32 30 30 29 28 28 28 25 25 27 27 26 25 23 20 20 21 24
43 41 40 41 41 39 36 33 31 29 29 28 26 24 23 23 26 28 28 28 28 28 27 27 26 25 26 29 30 30 29 30 31 32 32 31 32 34 34 33 33 35 36 35 32 31 31 30 29 29 28 24 24 26 26 26 25 23 21 21 22 25
33 30 31 32 31 30 28 27 26 26 26 24 23 22 21 23 27 30 30 32 31 27 26 24 24 26 29 31 30 29 29 30 31 32 32 32 34 35 34 33 34 36 36 34 33 32 31 30 30 29 28 24 23 25 26 26 25 23 21 21 23 26
28 25 26 27 27 26 26 26 25 24 22 22 21 20 19 22 28 32 33 33 30 28 26 24 26 29 30 30 28 28 29 30 31 32 33 34 36 36 34 33 36 37 35 33 33 33 32 31 30 29 26 23 23 24 25 25 24 23 21 22 25 26
22 22 21 21 23 24 26 27 26 24 22 21 18 17 19 23 29 34 35 34 32 29 26 25 27 28 28 28 27 28 28 30 31 32 33 35 37 36 35 35 37 37 35 34 34 34 33 31 29 27 25 23 23 24 24 24 23 22 22 23 25 27
22 24 22 21 23 24 26 27 28 27 25 22 20 21 25 27 31 35 36 34 32 29 26 26 26 26 26 25 26 27 28 30 31 32 34 36 37 36 36 36 37 36 34 34 34 34 33 30 27 25 24 22 22 23 23 23 22 22 21 22 26 27
27 28 27 26 27 25 24 25 26 26 25 24 24 26 28 30 32 33 32 31 30 28 27 27 26 25 24 24 26 27 28 30 31 33 34 36 37 37 38 37 37 35 33 33 34 33 31 28 25 24 23 21 21 22 22 22 21 21 20 22 27 27
32 28 29 28 27 26 25 26 25 24 24 24 26 26 27 28 30 30 30 29 28 27 27 28 27 26 26 26 28 29 30 31 32 34 35 37 37 38 38 38 36 33 32 33 32 31 28 26 24 23 22 21 21 22 22 21 20 20 18 20 27 26
37 30 30 30 31 30 29 28 27 25 25 24 24 25 26 28 28 28 28 28 28 29 30 30 29 29 29 29 31 32 33 34 34 36 37 38 38 38 38 37 33 31 31 31 30 29 27 25 23 22 22 21 22 22 22 21 19 17 16 19 26 26
42 36 33 33 36 36 33 32 29 26 25 25 26 28 30 30 30 29 28 27 28 31 33 32 31 31 32 32 34 35 36 36 37 39 40 39 38 38 37 34 31 30 30 30 29 28 26 23 22 22 22 22 23 23 22 21 18 14 13 18 25 26
41 38 38 39 40 39 36 36 32 29 28 28 29 32 32 32 32 31 30 29 31 34 36 34 33 35 35 36 38 38 39 40 41 43 43 41 39 37 34 31 30 29 29 29 28 26 25 23 22 23 23 23 23 23 23 20 17 14 13 18 23 24
42 40 40 41 41 40 39 37 34 32 32 32 34 35 35 35 35 35 35 35 36 38 39 37 37 38 39 40 42 43 45 46 47 47 44 41 38 35 32 30 28 27 27 27 25 25 24 23 23 24 24 24 23 23 22 19 16 14 17 22 24 23
44 44 43 44 45 44 41 39 37 37 37 39 38 36 38 41 41 41 42 41 41 42 42 41 41 42 43 46 48 49 51 52 50 47 43 39 36 33 30 28 26 25 25 24 24 24 24 24 24 25 25 24 24 24 22 19 16 15 20 25 26 23
46 46 48 49 50 48 45 43 42 42 43 42 37 37 42 45 45 45 45 45 45 44 44 45 47 50 51 53 54 55 55 53 49 45 41 37 34 31 28 25 23 23 22 22 23 23 24 24 25 25 25 24 24 24 22 19 17 17 19 24 25 23
49 48 49 52 53 52 52 51 50 51 51 44 39 42 45 45 47 47 47 47 46 46 48 51 54 56 57 57 57 57 54 51 47 42 37 34 31 27 24 22 21 21 22 22 23 24 24 25 25 25 24 25 24 23 22 20 19 17 17 21 25 23
56 56 55 56 59 61 60 59 60 60 57 51 47 46 45 46 46 47 46 47 48 50 54 56 57 57 58 58 57 55 52 48 43 38 34 31 26 23 21 20 20 20 21 22 23 24 24 24 24 24 25 25 23 22 22 22 21 20 18 21 25 23
59 60 60 59 60 62 62 62 60 59 56 53 51 49 49 48 45 45 48 50 54 55 55 55 56 57 57 56 55 52 48 44 39 35 31 27 23 22 21 21 20 21 21 23 24 24 24 24 24 24 26 26 24 22 23 24 23 22 20 21 23 22
58 57 58 55 53 55 58 58 55 55 55 53 51 50 50 48 46 47 50 52 54 53 52 53 54 55 55 53 51 48 44 40 36 32 28 25 24 23 23 23 22 22 22 23 24 24 24 24 25 26 27 27 25 23 24 25 25 23 21 21 22 22
61 60 59 54 51 54 57 58 57 56 56 54 50 44 43 43 44 48 52 52 52 51 53 54 54 53 52 50 47 44 40 37 33 31 28 26 25 25 24 24 24 23 23 23 24 25 25 25 26 28 29 28 26 24 25 27 27 25 22 22 22 22
60 61 62 60 58 60 62 62 60 58 56 54 51 46 46 48 49 51 53 53 53 54 55 54 52 50 48 46 44 40 37 34 32 30 28 27 27 26 26 25 24 23 23 24 25 26 26 26 28 28 27 26 26 25 27 28 28 27 25 24 24 23
57 57 57 58 58 58 59 58 57 57 55 54 54 56 58 59 57 56 55 55 57 57 55 52 50 48 46 44 41 38 35 33 31 29 28 28 27 26 25 24 24 23 23 24 25 26 26 27 28 27 25 25 25 25 27 29 29 29 27 26 25 24
56 55 53 53 54 54 54 53 52 53 53 54 57 59 59 60 59 58 58 58 57 55 52 49 47 46 44 41 38 36 33 31 29 28 27 26 26 25 24 24 24 24 24 24 25 25 26 26 27 27 26 26 26 25 27 29 29 28 27 25 24 23
53 53 54 53 54 54 52 50 49 48 49 50 52 54 55 55 56 56 56 55 53 51 49 47 45 44 41 38 35 33 31 29 27 26 25 25 24 24 23 24 24 24 24 24 25 25 26 27 26 26 26 26 27 27 29 29 28 26 25 25 23 20
46 48 53 54 53 52 49 47 46 45 44 42 43 47 50 51 53 53 52 51 49 48 46 45 43 41 38 35 32 30 28 26 25 24 24 24 24 23 24 24 24 24 24 24 24 25 26 26 26 26 26 27 28 29 29 28 25 23 23 23 22 20
41 42 47 50 47 46 43 39 37 35 35 37 42 48 51 53 54 53 50 48 46 45 44 43 41 38 36 33 30 28 26 26 25 25 25 24 24 24 24 25 25 24 24 24 24 24 25 25 25 26 27 28 29 29 29 26 25 23 21 21 22 23
36 34 39 43 39 38 35 30 27 27 34 43 48 53 55 56 54 50 48 46 44 43 42 40 39 37 34 31 29 27 27 28 28 27 27 26 25 25 25 26 25 25 24 24 24 24 25 25 26 26 27 29 29 29 28 26 25 25 24 24 25 25
33 30 33 36 35 36 34 30 29 31 41 49 52 54 56 53 50 47 45 44 42 41 40 39 38 36 33 31 29 29 29 30 30 30 28 27 27 27 27 26 26 25 25 25 26 26 27 27 27 27 28 29 30 29 28 26 26 27 28 28 28 28
33 31 32 32 32 35 34 31 34 39 47 52 51 50 51 48 46 45 43 42 41 40 39 38 37 35 33 32 32 32 32 32 32 31 30 29 29 28 28 27 26 26 26 27 27 28 28 28 27 28 28 29 29 28 27 26 26 28 29 30 29 29
35 34 35 34 32 35 36 34 35 40 45 48 48 46 46 45 44 43 42 41 40 39 38 37 35 34 33 33 33 34 35 35 34 33 32 31 30 29 28 28 27 27 28 28 28 29 28 28 28 28 28 27 27 26 26 27 27 28 29 30 30 30
40 39 39 38 36 37 39 38 38 40 42 44 44 42 42 41 41 41 40 39 38 37 36 35 34 34 34 34 34 35 36 36 35 34 33 32 31 30 29 28 27 28 28 29 29 29 28 28 28 28 28 27 27 27 28 29 29 29 30 30 30 30
40 40 38 39 42 43 42 40 38 38 42 43 41 38 37 36 36 37 37 37 38 37 36 35 34 34 34 34 34 34 35 35 34 33 33 32 30 29 28 27 28 28 29 29 29 29 29 28 28 27 27 27 27 28 29 29 29 28 27 27 28 28
37 38 37 37 41 43 43 43 39 36 39 39 36 34 32 32 32 33 35 36 36 36 35 34 33 33 33 33 33 33 33 33 32 32 31 30 29 28 28 28 28 28 29 29 29 29 28 27 26 26 26 26 26 27 27 27 26 26 25 25 26 27
38 39 39 38 39 40 41 44 43 41 37 32 29 30 31 31 33 33 34 34 35 35 34 33 33 33 32 32 31 30 30 30 30 29 29 28 27 27 27 27 27 28 28 28 28 28 27 26 25 25 25 25 25 25 25 25 25 25 25 25 26 26
Wind_Direction
275 276 278 279 280 280 281 282 283 284 285 286 287 288 289 290 291 291 292 292 293 292 291 292 294 296 297 299 301 302 303 305 305 304 303 300 299 301 305 311 314 315 317 320 322 320 316 313 314 316 313 309 310 309 300 294 294 294 296 298 303 307
276 278 280 281 282 282 282 283 284 284 285 286 286 287 289 290 290 291 291 291 292 289 289 292 293 294 296 297 299 300 303 304 303 300 299 298 297 298 304 309 311 312 315 319 321 319 316 312 312 315 313 306 305 306 301 296 295 295 295 298 302 304
278 280 281 282 282 282 282 283 283 283 284 285 286 288 289 290 290 291 290 290 290 286 289 293 292 292 293 295 297 300 303 302 299 296 295 296 294 297 304 307 308 310 313 317 319 317 315 311 309 312 312 304 300 300 299 296 295 296 294 296 298 300
279 281 282 281 280 280 281 281 282 283 283 283 285 288 290 291 291 289 288 288 287 285 289 291 289 289 291 294 298 301 303 300 297 293 293 294 293 298 305 306 306 308 312 316 316 315 314 311 308 311 310 301 295 295 295 295 295 295 293 294 293 296
281 281 279 277 277 278 279 280 281 281 281 282 285 287 289 290 287 285 286 287 287 287 288 286 286 289 292 297 300 302 301 299 296 294 294 293 294 300 304 303 304 307 312 314 314 313 313 311 310 313 311 298 291 291 292 294 295 293 292 292 291 295
280 278 275 272 272 275 276 278 280 279 279 282 283 282 282 280 277 279 284 288 290 287 284 284 287 292 298 300 301 300 299 297 297 296 294 293 296 301 302 301 302 307 311 312 311 311 311 310 309 312 310 296 287 287 289 293 295 293 290 290 291 296
279 276 273 271 268 268 271 275 277 277 277 276 277 277 275 271 272 277 282 288 290 285 282 285 290 296 300 299 299 298 297 295 297 295 293 292 296 300 300 299 302 307 309 309 308 309 309 308 308 310 307 295 286 285 288 293 295 292 288 290 292 297
274 270 270 267 261 262 266 269 270 273 272 269 274 277 271 271 278 282 284 287 287 283 282 285 291 297 298 296 296 297 296 295 296 294 292 292 296 299 298 299 302 306 307 305 305 306 306 306 307 307 303 294 287 286 290 295 295 291 288 291 294 297
257 259 261 259 257 260 262 261 260 262 266 269 274 269 264 271 277 279 281 283 284 281 279 285 292 295 295 295 295 295 296 295 294 292 291 293 297 297 296 298 302 304 303 302 302 303 304 305 305 304 300 293 288 288 292 296 295 290 288 294 296 299
239 247 252 253 254 257 259 258 256 257 262 266 264 259 263 270 272 275 277 278 279 276 277 286 291 293 295 295 294 294 294 293 292 291 293 295 297 296 295 298 301 302 301 301 302 302 303 304 303 300 296 292 289 290 293 294 292 289 291 296 297 301
233 246 254 255 256 255 258 261 260 258 260 260 258 261 267 271 272 274 275 274 274 273 277 285 288 291 293 294 294 293 293 294 294 293 294 296 296 294 294 297 299 300 299 300 301 301 301 301 299 296 293 290 288 290 292 291 288 288 293 297 298 303
230 248 252 248 253 258 264 265 262 260 260 259 260 265 270 272 273 273 273 274 272 270 277 284 286 289 292 293 295 295 296 296 295 294 295 296 295 293 294 297 298 298 298 299 299 298 298 297 294 293 291 289 288 290 290 286 284 289 296 297 297 303
226 241 249 247 250 257 263 263 264 265 263 261 263 269 273 275 275 275 276 276 271 268 276 283 283 285 290 294 297 298 298 297 296 296 296 297 296 294 294 296 297 297 297 298 297 295 294 292 290 289 288 287 287 288 286 282 283 291 297 295 295 301
224 231 244 251 251 253 257 260 265 268 267 267 271 276 275 275 275 276 279 278 275 273 278 282 280 281 286 292 297 299 299 297 297 298 298 297 296 295 294 295 296 295 296 295 294 292 291 289 287 286 285 285 286 284 282 280 282 289 291 290 297 302
228 230 238 246 250 252 255 258 260 265 271 274 278 280 277 276 275 275 278 278 278 279 282 281 276 278 284 290 295 297 297 298 299 300 299 297 295 294 293 294 294 294 294 293 291 290 289 287 285 284 283 284 284 281 279 278 282 286 278 280 291 295
230 229 234 240 246 251 255 255 254 260 269 276 284 284 278 279 277 276 278 279 279 280 281 279 276 278 282 288 293 295 296 298 299 299 297 295 294 292 292 293 293 293 291 290 289 288 288 285 283 282 282 282 281 279 278 278 281 280 273 275 282 284
234 231 233 237 243 249 251 251 251 256 265 277 284 278 275 279 279 279 280 279 279 278 279 279 279 280 282 287 291 293 295 297 298 297 294 292 291 291 290 291 291 289 288 287 289 288 286 284 281 280 281 281 279 277 279 279 278 276 278 282 283 281
239 236 236 240 243 246 248 250 253 259 270 280 278 271 276 280 279 279 279 278 276 275 276 278 280 282 283 286 289 292 295 296 295 293 291 290 289 289 289 289 287 284 284 286 288 288 284 281 279 278 279 279 278 278 279 278 276 278 284 285 283 282
240 240 241 245 247 248 250 254 259 266 275 279 277 278 283 282 279 279 277 275 272 272 274 278 281 283 284 286 289 292 293 293 292 290 288 287 287 287 286 284 281 280 283 287 288 286 283 279 276 276 277 277 278 278 276 273 273 277 278 279 280 281
243 246 249 252 254 256 258 262 266 270 273 276 278 283 286 285 281 278 274 271 269 272 277 280 283 284 284 286 288 290 290 289 288 286 285 285 285 284 282 279 277 279 284 287 288 285 281 277 275 273 273 274 276 275 272 269 271 274 271 272 278 278
247 251 254 257 261 264 265 267 269 269 271 274 277 278 282 282 276 272 271 270 272 276 280 282 283 283 284 286 287 287 286 285 284 283 283 283 281 279 277 277 277 280 283 286 285 281 277 274 271 270 270 272 273 271 270 269 271 275 270 266 271 271
244 248 252 256 261 266 268 268 267 269 272 274 275 276 277 274 270 270 271 272 276 280 282 283 283 283 284 285 285 284 282 282 281 280 279 278 275 274 275 277 279 281 283 283 281 277 273 270 267 266 267 268 270 269 268 269 273 277 272 264 264 264
240 243 247 250 255 260 263 264 265 268 270 271 272 271 269 268 269 272 273 275 279 282 284 284 284 283 284 283 282 280 280 279 278 277 275 273 271 272 274 276 278 280 280 279 276 273 269 267 266 266 266 268 269 268 267 267 274 280 275 266 263 263
241 244 246 248 250 254 257 260 263 266 267 268 266 261 260 263 267 269 271 275 280 284 285 284 283 283 281 280 278 277 276 275 274 274 272 270 270 272 274 275 276 276 276 274 272 270 266 264 265 267 269 270 268 267 267 267 273 280 277 270 268 268
241 243 246 248 249 252 255 258 262 264 265 265 263 262 262 263 266 267 270 276 281 284 284 283 282 280 278 277 276 274 273 272 272 271 269 269 270 271 272 273 273 274 274 273 271 269 267 264 263 264 264 266 267 267 267 268 273 278 276 274 275 274
241 243 244 247 250 251 255 258 261 264 265 265 265 265 266 266 267 269 273 277 280 281 281 280 279 278 276 275 274 272 271 270 270 268 268 267 266 268 270 272 273 274 273 272 272 270 267 263 261 260 260 261 264 265 266 270 274 275 274 275 278 274
244 248 249 249 252 254 257 261 264 266 268 269 267 265 265 267 269 271 275 278 279 279 278 277 276 276 275 274 273 272 271 270 268 265 263 262 264 267 270 272 273 274 273 272 271 268 264 261 259 258 259 260 261 262 265 270 272 271 272 273 272 267
248 253 256 255 255 257 259 263 267 270 271 269 267 265 265 268 271 274 276 276 276 276 276 275 275 274 273 273 272 271 270 267 262 259 258 260 264 267 270 271 271 272 272 271 269 265 262 260 257 257 258 260 262 264 266 269 267 266 270 268 263 261
245 249 257 259 259 259 261 264 266 266 263 259 260 263 265 270 273 274 274 273 273 273 273 273 273 273 272 271 270 268 264 259 257 256 258 262 265 267 268 268 269 270 270 269 267 264 261 259 257 258 259 261 264 266 267 266 263 262 264 263 260 261
243 244 253 260 260 257 254 253 251 250 249 253 260 264 267 272 273 272 271 270 271 271 271 271 271 271 270 268 266 263 258 256 256 257 260 264 266 268 268 268 269 268 267 266 265 263 261 260 259 259 260 263 265 266 266 264 261 259 258 258 259 261
237 234 243 254 254 252 249 241 238 242 248 256 265 267 268 271 270 269 269 268 269 269 269 269 269 268 267 264 260 258 256 256 257 259 262 265 267 268 268 268 268 267 265 264 264 264 263 262 263 263 263 264 265 265 266 264 260 258 258 258 260 263
229 227 232 239 241 246 246 238 238 245 250 257 264 267 269 270 269 268 267 267 268 268 268 268 268 267 266 261 257 255 256 256 257 261 264 267 269 268 268 267 266 265 264 263 264 264 264 264 264 263 264 264 265 266 265 262 260 259 259 261 263 266
217 218 221 223 225 234 236 232 235 243 250 256 261 267 271 270 269 267 266 267 267 267 268 268 269 268 265 261 257 255 256 257 259 263 266 269 268 267 266 266 264 262 262 262 263 263 262 262 262 261 261 263 265 265 262 260 259 260 261 264 267 270
208 209 213 216 217 222 227 230 233 240 249 256 261 267 269 268 268 267 267 267 267 267 267 268 269 268 265 263 260 258 258 259 261 264 266 266 265 265 264 264 263 262 262 262 262 262 262 262 261 261 261 261 262 262 261 261 261 262 265 267 270 272
208 208 211 217 221 222 224 227 233 242 251 257 261 265 266 266 267 267 267 267 266 266 267 267 268 267 265 264 262 261 261 261 263 264 264 264 263 262 262 262 262 261 261 262 262 262 262 262 262 262 261 261 261 262 263 263 264 266 267 270 273 275
211 212 214 221 226 227 226 228 230 236 246 255 259 262 266 269 269 268 267 266 265 266 266 267 266 266 266 265 264 264 263 263 263 262 261 260 260 260 261 261 260 260 260 260 261 261 260 261 261 261 262 262 262 264 265 265 266 268 268 270 273 275
211 214 219 225 230 231 230 231 232 234 240 250 254 261 269 272 271 270 269 268 266 265 266 267 267 268 268 268 267 265 264 263 261 260 259 257 258 259 260 260 260 260 260 260 259 259 259 260 261 262 264 264 265 266 266 266 266 267 268 269 270 271